Wind_Speed
21 25 27 28 27 25 23 21 20 18 17 16 17 17 16 16 15 14 13 13 14 15 15 15 16 17 17 17 17 17 17 17 17 16 16 16 16 16 16 16 15 14 13 12 12 12 12 13 13 13 12 12 10 10 9 9 9 8 8 8 8 7 7
18 24 28 29 28 27 26 24 22 21 19 19 18 17 16 16 16 15 15 14 14 15 16 16 16 17 18 18 18 17 17 17 17 17 17 17 17 16 16 16 16 15 14 13 13 12 12 13 13 14 13 12 11 10 9 9 8 8 8 7 7 7 7
16 22 27 28 28 28 27 26 26 24 23 22 20 18 17 16 16 16 16 15 14 14 14 15 16 17 17 18 19 19 18 18 17 17 18 18 17 17 17 17 16 16 15 14 13 13 12 12 13 14 14 13 12 11 10 9 9 8 8 7 7 7 7
17 21 23 25 28 29 29 30 29 27 24 22 19 18 17 16 16 16 15 15 14 14 14 15 16 17 16 17 19 20 19 19 19 18 18 18 17 17 17 17 17 16 16 15 14 13 13 12 13 14 14 14 13 12 11 10 9 9 8 8 8 7 7
20 21 23 25 27 30 32 31 28 25 23 21 18 18 18 19 18 18 17 16 15 15 15 14 14 16 17 17 19 20 21 21 20 19 18 18 18 18 18 18 17 17 16 15 15 14 13 13 13 13 13 14 13 13 13 12 11 10 9 9 8 7 7
22 23 24 25 26 27 27 27 26 27 25 22 21 21 22 22 21 21 21 19 17 17 16 15 14 15 17 18 18 20 21 22 21 19 18 18 18 18 18 18 18 17 17 16 15 15 14 13 13 13 13 13 13 13 13 13 12 11 11 10 9 8 8
23 24 25 25 24 23 25 27 30 31 27 24 24 25 26 26 24 23 24 22 21 21 20 19 17 17 17 19 19 20 21 22 22 21 20 18 18 18 17 17 17 17 17 17 16 16 15 15 14 13 13 13 14 13 13 13 12 12 12 11 11 10 9
27 26 26 26 26 26 27 28 29 27 25 25 27 27 27 26 25 25 25 25 26 25 23 21 21 20 20 20 21 21 22 23 24 23 22 20 19 18 17 17 17 17 17 17 17 17 16 16 15 14 13 13 14 14 13 13 13 13 13 12 11 11 10
30 29 28 28 28 28 27 27 25 24 25 27 27 26 24 24 25 26 27 28 29 28 25 23 23 22 21 21 22 22 23 23 23 23 23 23 21 19 18 18 17 18 18 18 17 17 17 17 16 16 15 14 14 15 14 14 14 14 13 13 12 11 11
29 30 30 29 26 25 26 24 24 24 25 26 25 23 23 24 26 27 29 30 30 30 28 26 25 25 23 22 22 22 22 22 21 22 23 24 24 22 21 19 18 18 19 18 18 17 17 17 17 17 16 15 15 16 15 15 15 14 14 14 13 13 13
27 27 29 30 27 26 25 22 22 25 26 24 22 21 22 24 25 26 28 29 29 30 30 29 27 27 26 25 24 22 22 21 21 21 22 24 26 25 24 21 20 19 19 19 18 18 17 16 17 18 18 17 16 16 16 16 16 15 15 15 15 15 15
27 25 26 29 29 29 27 22 20 23 27 25 22 20 20 21 22 24 26 27 27 29 31 32 30 29 29 28 26 24 23 22 22 22 23 25 27 27 26 24 22 21 21 20 19 19 18 17 17 18 18 18 18 17 17 17 16 16 16 16 16 16 17
30 28 27 27 28 29 28 23 17 17 21 22 19 19 20 22 23 24 24 23 23 26 31 33 33 32 32 31 29 28 27 25 24 25 25 26 27 29 29 27 25 24 23 23 23 21 20 20 20 19 20 19 19 19 18 17 17 17 17 17 17 17 18
34 32 29 27 27 27 26 24 20 17 18 19 18 18 20 22 23 22 19 18 19 21 25 29 34 36 35 32 32 33 32 29 28 28 28 27 26 28 29 29 27 25 25 24 24 23 22 22 22 22 21 21 21 21 20 19 18 18 18 18 18 18 18
33 34 31 28 27 27 25 24 23 22 22 21 20 20 21 22 21 18 15 16 18 20 21 24 30 35 35 33 33 35 35 32 31 31 30 28 26 26 28 30 30 28 26 24 24 24 24 23 22 22 22 23 23 23 22 21 20 20 20 20 19 19 19
30 32 31 28 27 27 26 25 24 24 24 23 22 21 20 20 19 18 17 17 18 20 21 22 25 30 34 35 34 36 36 34 32 32 31 29 28 26 26 29 31 30 28 27 26 26 25 24 23 22 22 23 24 25 24 23 23 22 22 22 21 21 21
28 30 29 27 27 28 28 27 26 25 25 25 24 22 20 18 19 20 20 19 18 18 18 19 21 25 29 31 32 34 35 35 35 33 31 29 29 27 26 27 30 31 31 30 29 28 27 26 25 24 23 24 24 25 26 26 26 25 24 23 23 22 22
28 29 28 28 28 29 27 25 26 26 26 26 26 25 23 21 20 18 18 18 18 16 16 17 16 17 20 23 27 30 32 34 35 33 30 28 29 29 28 26 27 30 31 32 31 30 29 28 27 26 25 24 25 25 26 27 28 27 26 25 24 23 23
29 30 30 29 29 28 26 25 25 26 26 26 27 26 25 23 22 21 20 20 18 15 15 14 14 14 15 18 22 26 28 29 31 31 29 29 29 29 28 27 27 29 31 32 33 32 31 30 29 27 26 25 26 26 26 27 28 28 27 27 26 25 25
29 30 30 29 29 29 27 26 26 25 26 26 26 27 26 25 24 24 25 25 23 21 19 15 13 13 14 14 17 21 24 25 27 28 28 28 28 29 29 29 30 31 32 33 33 33 32 32 30 29 27 27 27 27 28 27 27 27 27 27 27 27 26
27 27 27 27 27 28 27 27 27 26 27 27 27 27 28 27 25 24 25 25 25 26 26 22 17 16 16 14 15 17 18 20 22 25 27 28 29 29 30 31 33 34 35 34 33 33 33 33 31 30 29 29 28 28 28 28 28 27 26 26 27 28 27
28 27 27 27 27 27 26 27 28 28 28 28 28 28 28 28 28 26 26 26 24 23 25 24 22 20 17 16 15 16 15 15 16 17 20 25 28 30 33 34 33 34 35 34 32 32 32 32 32 32 31 30 30 30 30 29 29 28 27 27 28 28 28
32 28 28 29 29 29 28 28 29 30 30 30 29 29 29 29 29 28 28 27 26 24 25 25 25 23 20 19 19 19 18 16 15 15 15 17 21 26 30 31 31 31 32 32 31 31 30 29 29 30 31 31 30 31 31 30 30 30 30 29 29 29 29
31 27 26 28 29 29 30 30 30 31 31 32 31 30 30 30 30 30 29 29 28 28 28 28 27 27 27 26 25 25 24 22 20 19 16 14 15 18 20 23 27 29 28 28 29 29 29 28 27 28 29 31 31 32 32 32 32 33 33 32 32 31 31
31 28 27 28 29 30 30 31 31 31 31 31 31 31 31 31 31 31 31 31 30 30 30 30 30 30 30 30 29 28 28 27 25 24 22 18 17 17 15 16 21 26 26 26 26 26 27 28 28 28 29 31 32 33 33 34 34 34 35 35 35 34 34
35 33 32 32 33 33 33 32 32 31 31 30 30 30 30 30 31 32 32 32 32 31 32 32 32 32 31 31 30 29 29 29 28 28 26 24 23 22 19 17 18 20 22 23 24 24 23 24 25 25 26 28 31 33 34 35 36 36 35 35 35 36 36
40 40 38 38 37 36 36 36 35 34 33 32 31 31 31 30 30 31 32 32 32 32 33 33 33 33 33 32 32 32 31 30 30 29 29 28 27 27 26 25 24 22 21 20 21 21 21 21 21 21 20 21 24 28 31 33 35 36 36 35 35 35 36
45 46 44 43 41 40 39 38 37 37 36 35 35 34 33 33 32 32 32 33 33 33 33 33 34 34 34 34 33 33 33 33 32 31 31 31 30 28 28 27 27 27 26 25 23 22 22 22 22 21 20 19 20 23 25 26 28 32 34 35 35 35 35
40 41 42 42 42 41 41 41 41 41 41 40 40 39 38 37 37 36 35 35 35 35 35 35 35 35 34 34 34 34 34 34 33 33 33 33 32 31 30 29 28 28 29 29 28 27 26 26 25 23 23 22 21 23 24 23 24 27 30 31 31 32 35
35 34 34 36 38 39 41 42 42 43 43 43 43 43 42 42 41 41 40 39 38 38 38 38 37 37 36 36 35 35 35 35 35 34 34 34 34 34 34 33 32 31 31 31 31 30 29 28 27 26 25 25 25 26 26 26 26 27 28 28 28 30 33
40 40 40 40 40 41 42 42 42 43 43 44 44 44 44 44 44 43 43 43 42 42 41 40 39 39 39 38 37 37 37 37 36 36 36 36 36 36 36 36 36 35 35 34 34 33 31 30 30 30 29 29 30 30 30 31 31 31 30 29 29 31 31
41 42 44 46 46 47 47 48 48 47 46 46 46 45 45 45 45 45 45 45 44 44 43 43 42 41 40 40 39 39 39 39 39 39 38 38 37 37 37 37 37 37 36 36 36 36 35 34 34 33 33 33 34 34 34 35 35 35 35 33 33 34 33
41 41 43 45 46 47 48 50 50 50 50 49 48 47 47 46 46 46 46 46 45 44 44 44 43 43 42 41 41 40 40 40 40 41 40 40 39 39 38 37 37 37 37 36 36 36 36 36 36 36 35 36 36 36 37 37 37 38 38 37 36 36 36
44 43 43 43 45 46 48 49 50 51 51 51 50 49 48 48 48 48 48 47 47 46 46 45 45 44 43 43 42 42 41 41 41 41 41 41 40 40 40 39 38 38 38 37 37 37 37 36 36 36 36 37 37 38 38 39 39 40 41 41 39 38 38
47 46 45 45 45 46 47 48 50 51 51 51 51 50 49 48 48 48 48 48 48 47 47 47 47 46 45 44 44 43 43 42 42 41 41 41 40 40 40 40 39 39 39 38 38 38 38 38 38 38 37 38 38 38 39 40 40 41 42 42 42 41 40
46 47 47 47 47 47 48 48 49 50 51 52 52 52 52 51 50 50 49 49 49 49 48 48 48 48 47 46 46 45 45 44 44 43 42 42 41 41 41 40 40 40 40 40 40 40 40 40 40 39 39 39 39 40 40 41 41 41 42 43 43 42 41
44 44 46 47 48 49 49 49 49 49 50 51 52 53 53 53 53 52 52 51 51 50 50 50 50 50 49 49 48 47 47 46 46 45 45 45 44 44 43 43 43 43 43 43 43 43 42 42 42 41 41 41 41 41 42 42 42 42 43 43 44 43 42
43 44 45 46 47 48 49 50 50 50 51 51 51 51 52 52 52 52 52 52 52 51 51 50 50 50 51 51 50 50 49 49 49 48 48 48 48 47 47 46 46 45 45 45 45 46 45 45 44 44 44 44 44 44 44 44 44 43 44 44 44 44 43
Wind_Direction
207 205 201 202 203 207 210 207 203 203 201 201 203 206 204 201 203 206 206 209 210 210 211 213 213 213 214 212 209 208 206 204 202 199 196 194 192 188 186 188 189 192 191 189 187 182 178 174 172 170 169 166 166 166 166 168 169 170 171 169 170 171 173
213 203 198 200 201 205 211 211 208 205 205 207 209 211 212 209 208 211 210 209 211 213 213 213 213 213 214 213 213 212 211 210 207 202 199 198 197 194 192 193 194 195 195 194 192 190 186 181 176 174 172 169 168 169 171 172 170 171 173 174 176 176 175
202 196 195 197 199 203 209 212 212 209 208 211 213 216 218 217 217 219 220 216 214 216 216 216 216 216 215 214 214 215 214 214 213 209 205 202 200 198 198 199 199 200 201 199 196 195 193 188 183 180 175 172 173 173 174 177 175 174 177 179 183 183 180
191 191 194 198 201 204 208 211 213 212 212 215 219 222 225 228 229 229 231 231 228 224 220 218 219 218 216 214 215 217 216 216 216 215 211 207 205 203 202 203 204 205 206 205 202 200 199 197 192 187 182 178 178 177 178 181 181 180 182 182 183 185 183
199 197 199 202 206 209 210 210 211 215 217 218 220 223 226 232 234 231 232 234 236 234 229 224 223 221 219 215 215 218 219 219 219 220 217 212 210 209 208 208 208 209 210 210 209 206 204 204 200 196 192 187 184 183 182 185 187 187 188 187 186 186 185
210 207 207 209 212 214 214 212 211 214 216 215 216 220 224 229 231 230 230 231 233 235 233 229 225 224 223 220 217 217 219 220 220 222 222 219 216 216 214 213 213 213 214 214 215 213 210 210 208 205 202 199 196 192 188 189 191 192 193 193 192 191 189
217 215 213 214 215 215 216 216 216 215 213 213 217 221 223 226 229 230 232 232 232 232 230 226 222 219 220 220 220 218 218 219 218 219 221 222 222 222 222 220 218 217 217 217 218 219 217 215 213 212 210 208 206 203 198 197 197 196 196 197 197 195 193
217 218 215 213 214 214 214 216 219 219 216 217 222 226 227 227 230 235 237 235 233 234 234 232 227 222 218 217 218 219 219 218 217 215 216 218 221 224 226 226 224 222 221 220 220 221 222 220 218 216 215 215 212 209 206 205 205 202 201 201 201 200 197
217 218 219 218 216 216 216 217 219 220 219 222 226 229 228 231 234 238 239 236 232 233 238 239 236 231 225 219 219 221 221 221 219 216 214 214 217 220 223 226 227 226 224 223 222 223 224 225 225 223 220 218 217 214 210 208 209 208 207 207 208 208 206
218 216 219 221 220 220 221 220 221 223 224 223 225 226 226 230 234 235 236 235 232 233 237 238 238 236 232 227 224 224 224 224 223 221 218 215 215 216 218 221 224 226 226 224 222 223 225 227 228 229 227 224 221 219 215 211 210 211 211 212 213 215 217
219 215 215 218 219 221 222 220 220 227 230 226 221 220 221 226 230 233 235 238 238 237 237 235 234 235 234 231 229 228 226 223 222 222 220 219 217 216 217 218 219 222 225 225 223 222 223 226 228 230 231 230 228 226 222 218 214 213 213 215 217 219 222
216 214 213 216 218 220 223 222 218 221 227 229 224 219 221 225 227 231 235 237 236 236 235 234 234 236 234 230 230 230 226 223 221 219 219 219 218 216 216 217 217 217 219 220 221 220 219 222 226 228 230 231 231 231 230 227 224 220 218 218 219 221 223
218 216 214 217 220 221 224 228 227 217 219 227 230 226 228 230 229 228 229 231 231 231 232 233 235 236 232 227 227 229 227 224 222 219 218 218 217 216 216 216 217 218 218 217 216 216 216 217 220 223 226 228 229 230 231 232 232 229 226 226 225 225 226
223 220 217 219 223 225 227 231 234 227 219 221 224 224 224 228 230 230 230 232 233 233 233 232 234 235 231 225 226 229 227 222 220 220 218 217 216 215 214 215 217 219 221 221 218 216 216 218 219 221 222 224 226 228 229 231 233 234 233 232 233 233 233
224 221 219 220 224 227 229 232 233 232 229 226 226 227 229 232 234 234 233 237 238 236 235 235 236 235 231 227 228 231 230 226 224 223 220 218 217 215 214 214 216 218 220 223 224 222 220 220 222 225 225 225 225 225 225 228 231 234 234 235 235 236 238
224 221 220 221 225 227 228 230 231 232 233 234 233 234 238 241 240 236 235 237 237 236 237 238 241 240 233 227 227 230 232 232 231 228 223 219 216 215 214 214 215 218 219 220 224 226 224 222 223 226 229 231 231 228 225 225 227 231 234 235 236 236 237
222 220 219 221 225 228 227 228 230 231 231 233 234 234 235 236 238 240 240 238 235 234 236 238 242 245 238 230 228 231 233 233 233 231 228 224 219 217 216 215 215 218 220 220 221 225 226 224 222 224 228 233 235 235 232 229 227 227 229 233 237 239 240
223 222 222 223 226 228 227 227 230 232 232 233 234 234 232 230 232 236 237 234 230 228 232 239 244 245 240 233 232 233 231 228 226 225 225 226 224 221 220 220 219 220 222 223 223 224 226 226 224 224 226 230 235 238 238 237 235 232 230 230 234 238 241
224 224 223 223 226 228 227 225 227 231 232 233 233 235 235 232 230 230 232 233 232 229 229 236 244 244 238 236 234 231 227 224 223 223 223 223 223 223 223 224 224 223 223 224 224 225 226 228 228 227 227 230 234 237 238 238 239 240 238 235 234 235 238
220 221 222 225 228 230 229 227 228 229 231 233 234 235 238 237 232 231 235 240 241 240 239 242 250 249 242 240 237 232 229 228 228 227 226 224 223 224 225 226 227 225 223 223 224 225 226 227 229 230 230 232 235 238 240 240 240 240 242 242 241 239 238
214 219 224 228 231 234 234 233 233 232 232 234 234 235 238 241 238 234 238 243 244 244 248 252 253 250 248 244 239 235 233 233 233 231 231 231 230 230 230 228 227 227 225 223 223 225 225 225 226 228 230 232 235 238 241 243 243 242 240 241 242 242 241
226 230 233 235 237 238 237 236 237 237 236 236 236 235 237 242 243 240 240 243 244 241 244 246 241 243 251 249 240 239 237 233 233 234 234 236 236 236 234 231 229 230 231 229 228 228 227 226 226 227 228 231 234 237 239 241 243 245 244 242 241 241 240
238 237 235 234 234 235 235 234 235 238 239 238 238 238 238 240 244 245 244 245 245 242 241 240 237 239 250 252 246 246 245 240 239 240 238 239 240 239 239 237 234 236 236 234 232 232 232 232 232 232 232 233 234 236 239 240 242 244 245 244 244 243 242
236 231 229 230 231 231 232 233 234 236 238 239 239 239 239 241 243 247 247 247 247 246 245 246 244 242 247 253 254 253 250 248 249 247 244 246 246 244 246 244 238 234 233 230 230 231 231 233 236 238 239 238 235 235 237 240 243 246 246 246 246 245 244
234 230 228 229 230 229 229 231 232 234 236 239 239 239 239 240 242 245 247 248 248 247 247 250 252 250 251 254 256 256 253 251 251 251 250 254 254 251 255 250 236 230 227 227 227 228 228 230 233 236 238 239 237 236 237 239 242 246 248 250 251 251 249
234 231 228 226 226 227 228 228 228 230 231 234 237 238 238 239 240 243 246 248 248 248 247 249 252 254 255 255 256 257 257 255 254 254 254 256 257 255 256 254 246 237 232 230 229 227 226 226 226 227 231 235 236 237 238 240 242 245 246 249 252 255 256
231 227 224 221 220 221 224 226 227 228 229 230 232 236 237 238 238 240 244 247 249 249 248 248 250 252 254 255 256 257 258 257 257 255 253 253 255 254 254 254 253 251 247 242 239 236 234 233 230 228 228 230 233 236 238 241 244 245 245 246 250 254 257
225 220 216 216 216 216 219 222 225 228 230 231 232 234 238 240 240 240 242 244 247 250 250 250 250 251 252 253 255 256 257 258 258 257 256 256 256 257 257 258 258 257 255 254 252 250 248 245 242 240 239 237 239 242 242 243 246 246 246 246 249 252 255
222 216 213 213 216 219 223 225 228 231 234 236 237 238 239 241 244 244 244 244 245 248 250 251 251 252 252 252 253 254 255 257 258 258 258 259 259 259 258 258 259 258 257 257 258 258 256 252 249 249 249 249 250 252 251 251 252 252 253 254 253 254 255
236 233 229 224 223 226 229 233 235 237 239 241 243 244 244 245 246 247 247 247 246 246 248 249 250 252 252 252 252 253 253 254 255 256 255 256 257 256 255 254 253 252 252 254 256 258 259 259 258 259 260 259 258 258 258 258 258 258 260 262 260 259 258
245 246 247 244 241 239 240 241 243 244 245 246 247 249 250 250 250 250 250 250 250 249 249 249 249 250 251 252 252 253 253 253 253 253 253 253 254 254 253 253 252 250 250 251 252 255 257 258 259 260 262 262 260 259 259 260 260 260 261 261 262 262 261
245 247 249 250 251 250 250 249 249 249 249 250 249 249 250 251 251 252 252 252 252 252 251 251 251 250 251 251 252 252 253 253 253 253 253 253 254 254 254 254 255 254 253 252 252 253 255 256 257 258 259 259 260 259 258 258 259 259 259 260 263 265 264
245 246 246 246 247 249 250 251 251 250 250 250 250 250 249 248 249 249 250 251 251 252 252 252 251 251 251 251 252 252 253 253 254 254 254 254 254 255 255 255 256 257 256 256 255 255 255 256 257 257 258 258 259 260 259 259 259 259 258 258 261 265 264
244 243 243 242 243 243 245 246 248 250 250 249 249 249 248 247 247 247 247 247 248 249 250 250 250 250 250 250 251 252 252 253 254 255 256 256 256 256 256 256 256 257 257 257 257 257 257 257 258 258 258 258 258 259 260 260 260 260 259 258 259 261 262
241 240 239 239 239 240 241 243 245 248 249 249 248 248 247 246 246 246 246 247 247 247 248 249 250 250 249 249 249 250 250 251 252 253 254 255 256 257 257 257 257 258 258 257 257 257 258 258 258 258 258 258 258 258 258 258 259 259 259 260 260 260 260
240 239 238 237 238 239 240 242 243 245 247 248 247 247 247 247 248 248 248 248 249 249 249 249 249 250 249 249 248 248 248 249 250 251 253 254 255 256 257 258 258 259 259 259 258 258 258 258 258 258 257 257 257 257 257 257 257 258 258 259 260 260 259
242 241 239 238 238 239 240 241 242 243 244 246 247 247 247 248 249 250 250 250 250 249 249 249 249 250 250 250 249 249 248 249 249 250 252 253 254 256 257 257 258 258 259 260 260 259 259 258 258 258 258 258 258 257 257 257 257 256 257 257 258 259 259
244 243 243 242 241 240 240 240 241 242 243 244 246 247 247 248 248 249 250 250 250 250 250 249 249 250 250 250 250 250 250 250 250 251 252 253 254 255 255 256 257 257 257 258 259 260 260 259 259 258 258 259 259 259 259 258 257 257 257 257 258 258 258
Height
5895 5897 5900 5902 5905 5906 5908 5910 5911 5912 5913 5915 5916 5917 5919 5920 5921 5922 5924 5925 5927 5928 5930 5931 5933 5934 5936 5938 5939 5940 5941 5942 5944 5945 5946 5947 5948 5949 5950 5950 5950 5951 5951 5951 5951 5952 5952 5952 5952 5953 5954 5954 5955 5956 5957 5957 5957 5957 5957 5957 5957 5958 5958
5893 5894 5897 5900 5903 5905 5906 5908 5910 5911 5912 5913 5915 5916 5918 5920 5921 5922 5923 5925 5926 5927 5928 5930 5931 5933 5934 5936 5937 5939 5940 5941 5942 5944 5945 5946 5947 5948 5949 5949 5950 5950 5950 5951 5951 5951 5952 5952 5952 5952 5953 5953 5954 5955 5956 5957 5957 5957 5957 5957 5958 5958 5958
5892 5893 5896 5899 5902 5903 5905 5906 5907 5909 5910 5911 5913 5915 5918 5919 5920 5921 5922 5924 5925 5925 5927 5929 5930 5931 5932 5934 5936 5937 5938 5940 5941 5942 5943 5944 5945 5946 5947 5948 5948 5949 5949 5949 5950 5950 5951 5951 5952 5952 5952 5952 5953 5954 5955 5956 5956 5957 5957 5958 5958 5958 5958
5892 5894 5896 5898 5899 5901 5902 5902 5904 5906 5909 5911 5914 5916 5917 5918 5919 5921 5922 5923 5924 5925 5926 5927 5928 5930 5931 5933 5934 5936 5937 5938 5939 5940 5942 5943 5944 5945 5945 5946 5947 5947 5948 5948 5949 5949 5950 5951 5951 5952 5952 5952 5953 5954 5954 5955 5956 5956 5957 5957 5957 5958 5958
5891 5893 5894 5895 5896 5897 5899 5902 5906 5908 5910 5912 5913 5914 5915 5916 5917 5919 5920 5921 5922 5923 5924 5926 5927 5929 5930 5931 5932 5934 5935 5936 5937 5939 5940 5941 5942 5943 5944 5944 5945 5946 5947 5947 5948 5948 5949 5950 5951 5952 5952 5952 5952 5953 5954 5954 5955 5956 5956 5957 5957 5957 5958
5890 5891 5892 5892 5894 5897 5901 5905 5907 5907 5907 5910 5911 5912 5912 5913 5915 5917 5918 5919 5920 5921 5923 5924 5925 5927 5928 5929 5930 5932 5933 5934 5936 5937 5939 5940 5941 5942 5942 5943 5944 5945 5946 5947 5947 5948 5948 5949 5950 5951 5952 5952 5953 5953 5954 5954 5955 5956 5956 5957 5957 5957 5958
5889 5890 5891 5892 5894 5896 5899 5901 5901 5901 5905 5908 5908 5908 5909 5911 5913 5915 5917 5918 5919 5919 5919 5921 5923 5924 5926 5927 5928 5929 5931 5932 5933 5935 5937 5938 5940 5940 5942 5942 5943 5944 5944 5945 5946 5947 5948 5948 5949 5950 5951 5952 5952 5953 5954 5954 5955 5955 5956 5956 5957 5957 5957
5886 5888 5889 5890 5890 5892 5894 5896 5898 5901 5905 5906 5905 5905 5908 5910 5912 5914 5915 5916 5916 5916 5917 5919 5921 5922 5923 5924 5926 5927 5928 5929 5931 5932 5934 5936 5938 5939 5940 5941 5942 5943 5943 5944 5945 5946 5947 5947 5948 5949 5950 5951 5951 5952 5953 5953 5954 5955 5956 5957 5957 5957 5957
5883 5885 5887 5887 5888 5890 5891 5893 5896 5899 5901 5902 5903 5905 5909 5910 5911 5911 5911 5912 5913 5914 5916 5919 5920 5922 5922 5923 5924 5925 5926 5927 5929 5930 5932 5933 5935 5936 5938 5939 5941 5942 5942 5943 5944 5945 5946 5947 5947 5948 5949 5950 5950 5951 5951 5952 5953 5954 5955 5956 5957 5957 5958
5882 5882 5883 5885 5888 5890 5891 5893 5895 5896 5897 5898 5901 5904 5907 5907 5907 5907 5907 5908 5909 5912 5914 5916 5918 5919 5921 5922 5922 5923 5924 5926 5928 5929 5930 5931 5932 5934 5935 5937 5939 5940 5941 5942 5943 5944 5945 5946 5947 5947 5948 5949 5949 5950 5950 5950 5951 5952 5953 5954 5956 5956 5957
5880 5880 5880 5882 5886 5888 5889 5892 5893 5894 5895 5897 5900 5901 5902 5902 5903 5904 5905 5905 5908 5910 5912 5913 5915 5916 5918 5919 5921 5922 5923 5924 5926 5927 5928 5929 5930 5931 5933 5935 5937 5938 5939 5940 5941 5942 5943 5944 5945 5946 5947 5948 5948 5949 5949 5950 5949 5950 5951 5952 5953 5954 5955
5878 5879 5879 5880 5883 5884 5885 5887 5890 5890 5891 5893 5896 5898 5898 5899 5901 5902 5902 5903 5905 5907 5909 5910 5912 5913 5914 5916 5918 5920 5920 5922 5923 5924 5925 5926 5927 5928 5930 5932 5934 5935 5936 5937 5938 5940 5941 5942 5943 5944 5945 5946 5947 5948 5949 5949 5949 5949 5949 5950 5951 5952 5953
5876 5877 5878 5879 5879 5881 5882 5885 5887 5889 5889 5890 5893 5895 5896 5898 5899 5900 5900 5901 5903 5904 5905 5907 5908 5908 5910 5912 5914 5916 5917 5918 5919 5920 5921 5922 5923 5925 5927 5929 5932 5933 5934 5934 5935 5937 5938 5939 5940 5941 5943 5944 5945 5946 5947 5948 5949 5949 5949 5949 5949 5950 5951
5873 5875 5876 5877 5877 5878 5880 5882 5885 5888 5889 5890 5891 5893 5894 5896 5897 5899 5900 5901 5901 5902 5903 5904 5903 5903 5906 5909 5910 5911 5912 5913 5914 5915 5917 5918 5920 5921 5923 5926 5929 5931 5932 5933 5934 5934 5935 5937 5938 5939 5940 5942 5943 5944 5945 5946 5947 5948 5948 5948 5948 5949 5950
5870 5871 5873 5875 5875 5876 5878 5880 5882 5884 5887 5889 5890 5891 5892 5893 5895 5897 5899 5899 5898 5898 5899 5899 5899 5899 5902 5906 5907 5907 5908 5910 5912 5913 5914 5916 5917 5918 5920 5923 5925 5928 5930 5932 5933 5933 5933 5934 5936 5937 5939 5940 5941 5942 5943 5944 5945 5946 5946 5946 5946 5947 5948
5867 5869 5870 5872 5873 5874 5875 5877 5879 5881 5883 5885 5887 5888 5889 5890 5891 5894 5896 5896 5895 5895 5896 5896 5896 5896 5897 5901 5903 5904 5906 5910 5912 5912 5913 5915 5916 5917 5918 5920 5922 5925 5927 5929 5930 5931 5932 5932 5933 5935 5937 5938 5940 5940 5941 5941 5942 5943 5944 5945 5945 5945 5946
5865 5866 5868 5870 5871 5871 5873 5875 5877 5879 5881 5882 5884 5886 5887 5888 5889 5891 5893 5894 5895 5895 5895 5894 5894 5893 5894 5896 5899 5900 5903 5906 5908 5910 5912 5914 5915 5916 5917 5917 5919 5921 5923 5925 5927 5928 5929 5930 5931 5932 5934 5936 5938 5939 5940 5939 5939 5940 5941 5942 5943 5944 5944
5862 5864 5865 5867 5867 5868 5871 5873 5875 5876 5878 5880 5882 5883 5885 5887 5888 5889 5892 5893 5893 5893 5894 5893 5892 5892 5892 5894 5895 5897 5899 5901 5903 5905 5907 5910 5912 5915 5916 5916 5917 5918 5920 5922 5923 5925 5926 5927 5928 5929 5930 5932 5935 5937 5938 5938 5938 5938 5939 5940 5941 5942 5942
5859 5861 5862 5863 5864 5866 5868 5870 5871 5873 5875 5877 5879 5881 5882 5884 5886 5887 5888 5888 5888 5890 5890 5890 5890 5890 5890 5891 5892 5894 5896 5898 5899 5901 5903 5905 5908 5911 5913 5914 5914 5915 5917 5918 5919 5921 5923 5925 5925 5926 5927 5929 5931 5933 5935 5936 5937 5937 5938 5938 5939 5939 5940
5857 5858 5860 5861 5862 5863 5865 5867 5868 5870 5872 5873 5876 5878 5880 5881 5883 5884 5883 5883 5885 5887 5887 5887 5889 5890 5890 5890 5891 5893 5894 5895 5897 5898 5899 5901 5903 5905 5907 5909 5910 5911 5912 5913 5915 5917 5920 5921 5923 5923 5924 5926 5928 5930 5933 5934 5935 5935 5936 5937 5937 5937 5937
5855 5856 5858 5859 5860 5861 5863 5864 5866 5867 5868 5870 5872 5875 5876 5878 5880 5881 5881 5881 5883 5884 5884 5886 5890 5890 5890 5890 5891 5891 5892 5893 5894 5895 5897 5898 5899 5901 5902 5903 5904 5906 5907 5908 5910 5913 5915 5917 5918 5919 5920 5922 5924 5927 5930 5932 5933 5933 5933 5933 5934 5934 5935
5852 5854 5856 5857 5858 5859 5861 5862 5863 5864 5865 5867 5869 5871 5873 5874 5876 5878 5879 5879 5880 5882 5882 5884 5887 5889 5889 5889 5889 5889 5890 5891 5892 5893 5894 5895 5896 5897 5898 5898 5900 5902 5904 5906 5908 5910 5911 5913 5914 5915 5916 5918 5920 5923 5926 5928 5930 5930 5930 5930 5930 5930 5931
5849 5851 5852 5853 5855 5856 5857 5858 5859 5860 5861 5863 5865 5867 5869 5871 5872 5874 5876 5877 5878 5879 5880 5881 5883 5886 5887 5887 5887 5887 5888 5889 5890 5891 5892 5893 5894 5894 5894 5896 5898 5901 5903 5905 5907 5908 5910 5911 5912 5913 5914 5916 5917 5919 5921 5924 5925 5926 5927 5927 5927 5927 5927
5846 5847 5848 5849 5851 5852 5853 5854 5855 5856 5858 5859 5861 5863 5866 5867 5869 5870 5872 5874 5875 5876 5877 5878 5880 5882 5883 5883 5884 5885 5886 5887 5889 5890 5890 5891 5892 5893 5893 5894 5896 5897 5899 5902 5904 5905 5907 5908 5909 5911 5912 5914 5916 5917 5918 5920 5921 5921 5922 5923 5923 5923 5924
5841 5843 5844 5845 5847 5848 5849 5851 5852 5853 5854 5856 5857 5860 5862 5864 5865 5866 5868 5869 5871 5873 5874 5875 5876 5878 5879 5880 5881 5882 5883 5885 5886 5888 5888 5889 5890 5891 5891 5892 5893 5894 5896 5898 5900 5901 5903 5903 5905 5907 5909 5911 5913 5914 5915 5916 5916 5917 5918 5919 5919 5920 5921
5836 5838 5840 5841 5842 5844 5845 5847 5848 5850 5851 5853 5854 5856 5858 5860 5861 5863 5864 5865 5868 5870 5872 5873 5874 5875 5876 5877 5878 5879 5880 5881 5883 5884 5886 5887 5888 5889 5890 5891 5892 5893 5894 5895 5896 5898 5899 5900 5901 5903 5905 5907 5909 5911 5911 5912 5912 5913 5914 5915 5916 5916 5917
5830 5832 5834 5836 5837 5839 5840 5842 5844 5846 5847 5849 5850 5851 5853 5855 5857 5859 5860 5862 5864 5866 5868 5870 5871 5872 5873 5874 5875 5876 5877 5878 5879 5880 5882 5884 5886 5887 5888 5889 5890 5892 5892 5893 5894 5895 5896 5897 5899 5900 5902 5904 5905 5906 5907 5908 5908 5909 5910 5911 5912 5913 5913
5822 5823 5826 5829 5831 5833 5835 5837 5838 5840 5842 5844 5845 5847 5848 5850 5853 5855 5857 5858 5860 5861 5863 5866 5867 5869 5870 5871 5872 5873 5874 5875 5875 5877 5877 5878 5881 5882 5883 5885 5886 5888 5889 5889 5891 5892 5894 5895 5896 5897 5898 5899 5901 5902 5903 5904 5905 5906 5906 5907 5907 5908 5909
5815 5816 5819 5822 5825 5827 5830 5832 5834 5835 5837 5838 5840 5842 5844 5846 5848 5850 5852 5854 5856 5857 5859 5861 5862 5864 5866 5867 5868 5869 5870 5871 5872 5873 5873 5874 5875 5877 5879 5881 5883 5884 5885 5886 5887 5889 5890 5891 5891 5893 5894 5895 5897 5897 5898 5900 5902 5903 5903 5904 5904 5905 5905
5809 5811 5814 5817 5821 5823 5826 5828 5830 5832 5833 5835 5837 5838 5840 5842 5844 5845 5847 5849 5851 5853 5854 5856 5858 5859 5861 5863 5864 5865 5866 5868 5868 5869 5870 5871 5872 5873 5875 5877 5880 5882 5883 5883 5884 5885 5886 5886 5887 5888 5890 5891 5893 5894 5895 5896 5898 5899 5900 5901 5902 5901 5901
5806 5808 5810 5813 5816 5819 5821 5823 5825 5827 5829 5832 5833 5835 5836 5838 5839 5841 5842 5843 5845 5847 5849 5851 5853 5854 5856 5857 5859 5861 5862 5863 5865 5866 5867 5868 5868 5869 5871 5872 5875 5877 5879 5880 5881 5882 5882 5883 5884 5885 5887 5888 5889 5891 5892 5893 5893 5894 5895 5896 5896 5896 5896
5803 5805 5807 5809 5811 5813 5815 5817 5820 5822 5824 5826 5827 5829 5831 5832 5834 5835 5837 5839 5840 5842 5844 5846 5848 5849 5851 5852 5854 5855 5857 5858 5859 5861 5862 5863 5864 5865 5866 5867 5868 5870 5873 5875 5876 5878 5878 5879 5880 5882 5883 5884 5885 5886 5887 5888 5888 5889 5889 5890 5890 5891 5891
5800 5802 5803 5804 5805 5806 5808 5810 5812 5815 5817 5819 5821 5823 5825 5826 5828 5830 5832 5834 5836 5837 5839 5841 5842 5843 5845 5846 5848 5849 5851 5852 5853 5854 5856 5857 5859 5860 5861 5862 5863 5864 5866 5868 5870 5872 5873 5874 5875 5877 5878 5879 5879 5880 5881 5882 5882 5883 5884 5885 5885 5886 5886
5795 5796 5797 5798 5799 5801 5802 5803 5805 5808 5810 5813 5815 5817 5818 5820 5822 5824 5826 5828 5830 5832 5833 5835 5836 5838 5839 5840 5842 5843 5845 5846 5847 5848 5850 5851 5853 5854 5855 5857 5858 5859 5860 5862 5864 5865 5867 5868 5870 5871 5872 5873 5874 5874 5875 5875 5876 5876 5877 5879 5880 5881 5882
5789 5790 5791 5793 5794 5795 5796 5798 5800 5802 5804 5806 5809 5811 5812 5814 5816 5818 5820 5822 5824 5826 5828 5829 5830 5832 5833 5835 5836 5837 5838 5840 5841 5843 5844 5845 5847 5848 5850 5851 5853 5854 5855 5856 5858 5859 5861 5862 5863 5865 5866 5868 5868 5869 5870 5870 5870 5871 5871 5873 5874 5875 5877
5781 5783 5785 5786 5788 5789 5791 5793 5794 5796 5798 5800 5802 5804 5806 5808 5810 5812 5813 5815 5817 5819 5821 5823 5824 5825 5827 5829 5830 5831 5833 5835 5836 5838 5839 5840 5841 5843 5844 5846 5847 5848 5849 5850 5852 5854 5855 5856 5857 5859 5861 5861 5862 5863 5864 5864 5865 5865 5866 5867 5867 5869 5871
5774 5776 5778 5779 5781 5783 5786 5787 5789 5790 5792 5793 5795 5797 5799 5802 5803 5805 5807 5809 5811 5812 5814 5816 5817 5819 5820 5822 5824 5826 5827 5829 5831 5833 5834 5835 5836 5837 5838 5840 5841 5842 5843 5844 5845 5847 5848 5850 5851 5853 5854 5855 5856 5857 5858 5858 5859 5860 5860 5861 5861 5863 5864
5767 5769 5771 5773 5775 5777 5780 5781 5782 5784 5785 5787 5789 5791 5793 5795 5797 5798 5800 5801 5803 5805 5807 5809 5810 5812 5813 5815 5817 5819 5821 5823 5825 5827 5828 5829 5830 5831 5833 5834 5835 5836 5837 5838 5839 5840 5841 5843 5845 5846 5847 5848 5849 5850 5850 5851 5852 5853 5854 5855 5855 5856 5857